Regional Weather Roundup
Issued by NWS Newport/Morehead, NC

Home | Current Version | Previous Version | Text Only | Print | Product List | Glossary On
Versions: 1 2 3 4 5 6 7 8 9 10 11 12 13 14 15 16 17 18 19 20 21 22 23 24 25 26 27 28 29 30 31 32 33 34 35 36 37 38 39 40 41 42 43 44 45 46 47 48 49 50
000
ASUS42 KMHX 271725
RWRMHX
WEATHER ROUNDUP FOR EASTERN NORTH CAROLINA
NATIONAL WEATHER SERVICE NEWPORT/MOREHEAD CITY NC
100 PM EDT SUN MAY 27 2018

NOTE: "FAIR" INDICATES FEW OR NO CLOUDS BELOW 12,000 FEET
WITH NO SIGNIFICANT WEATHER AND/OR OBSTRUCTIONS TO VISIBILITY

NCZ015>017-031-032-045>047-102-103-271800-
NORTH COAST

CITY           SKY/WX    TMP DP  RH WIND       PRES   REMARKS
EDENTON        FAIR      86  70  58 SW13G18   30.01F
ELIZABETH CITY FAIR      85  72  65 SW16G23   30.00F
KITTY HAWK     FAIR      84  65  53 SW7G16    30.01S
MANTEO         FAIR      82  70  66 S17       30.03S

$$

NCZ045>047-081-094-103-104-271800-
CENTRAL COAST

CITY           SKY/WX    TMP DP  RH WIND       PRES   REMARKS
FRISCO         FAIR      82  72  71 SW9       30.06S

$$

NCZ095-097-098-100-101-271800-
SOUTHERN COAST

CITY           SKY/WX    TMP DP  RH WIND       PRES   REMARKS
BEAUFORT       FAIR      80  72  76 SW10      30.05S
CEDAR ISLAND   NOT AVBL
JACKSONVILLE   FAIR      81  69  67 S9        30.03S
PINEY ISLAND   NOT AVBL
WILMINGTON     FAIR      82  67  60 SE7       30.04S


$$

NCZ011>013-027>030-043-044-078>080-089-090>093-098-271800-
COASTAL PLAIN

CITY           SKY/WX    TMP DP  RH WIND       PRES   REMARKS
AHOSKIE        PTSUNNY   84  69  60 S6        29.99F
CLINTON        FAIR      83  70  64 S3        30.03S
ELIZABETHTOWN  PTSUNNY   83  69  62 S6        30.03S
GOLDSBORO      FAIR      84  67  57 SW8       30.01F
GREENVILLE     FAIR      84  66  54 SW9       30.03F
HAVELOCK       NOT AVBL
KENANSVILLE    FAIR      82  68  61 SW5       30.03F
KINSTON        SUNNY     84  66  54 S9        30.03F
NEW BERN       FAIR      83  69  62 S6        30.04F
RICHLANDS      FAIR      83  68  60 S12       30.04S
ROCKY MOUNT    FAIR      83  67  58 S8        30.01F
WASHINGTON     FAIR      85  66  52 S13       30.02F
WHITEVILLE     FAIR      83  66  55 S8        30.02F

$$

AMZ130-135-150-152-154-156-158-170-250-252-270-ANZ085-086-088-633-658-670-271800-
MARINE OBSERVATIONS

STATION/POSITION TIME  TEMP    WIND        PRES    WAVE   SWELL
                       AIR SEA DIR/SP/G            HT/PER HT/PER
                 (UTC) (F)     (DEG/KT/KT) (MB)    (FT/S) (FT/S)
CHESAPEAKE LIGHT NOT AVBL
64 E VA BEACH    1650   74 73  210/ 16/ 17 1016.6    3/ 5   2/ 8
DUCK             1700   82 54  210/ 14/ 18 1015.6
2 E DUCK         1700      59                N/A     1/ 9
OREGON INLET     1700   78 80  200/ 17/ 20 1016.9
13E OREGON INLT  1648      71                N/A     2/ 8   2/ 8
HATTERAS CG      1700   81 77  200/  4/  9 1017.3
DIAMOND BUOY     1710   78 78  190/ 16/ 17 1018.1
CAPE LOOKOUT     1700          160/  9/ 10 1017.9
BEAUFORT LAB     1700   78 79  180/  8/  9 1017.8
30 SE NEW RVR IN 1708   77 78  170/  8/ 10 1017.6
30 SE NEW RVR IN 1700      78                N/A     2/ 8
27 SE WRIGHTSVLE 1708   77 78  150/ 10/ 16 1017.5
5 SE WRIGHTSVLE  1708   77 74  120/  6/  8 1016.8
225 S CAPE HAT   1700      78  150/ 17/ 19 1018.3
41 SE CHARLESTON 1700      77  130/ 21/ 29 1016.2

$$



USA.gov is the U.S. government's official web portal to all federal, state and local government web resources and services.